sat.trackr.live / text

‹ back to catalog

STARLINK-37034

NORAD 68171 · 2026-050E

PAYLOAD ACTIVE UNKNOWN

§ Identity

Operator
Country
US
Launch date
2026-03-14
Launch site
AFETR
Launch vehicle
Mass (kg)
RCS (m²)

Purposes: comms

External: N2YO · Heavens-Above · Gunter

§ Orbital elements

Epoch: 2026-05-25T01:24:10.118016Z

Period
93.85 min
Inclination
53.1589°
Eccentricity
0.0000954
Mean motion
15.34399759 rev/d
Perigee alt
462.1 km
Apogee alt
463.4 km
Semi-major
6,840.8 km
B*
9.2234e-4
RAAN
271.4520°
Arg perigee
74.4888°
Mean anomaly
285.6220°
Rev number
1,238

§ Raw data

STARLINK-370341 68171U 26050E   26145.05845044  .00030915  00000+0  92234-3 0  99942 68171  53.1589 271.4520 0000954  74.4888 285.6220 15.34399759 12388

JSON: /api/v1/satellites/68171 · /tle

For live sub-satellite position, see the globe view (requires WebGL).

§ Visibility from observer

Set your observer location to see the next 7 days of passes ≥ 10°. The values pass through the URL so the page stays shareable.

No JS? Fill the form by hand. The geolocation button needs JavaScript.